Temp
19 19 19 19 18 18 17 17 17 16 16 15 15 15 14 14 14 13 14 14 15 15
19 19 19 19 19 18 18 17 17 16 16 15 15 15 14 14 13 13 13 14 14 15
18 18 19 18 18 18 17 17 17 16 16 15 15 15 14 14 14 13 13 13 13 14
11 13 15 16 17 18 18 17 17 16 16 15 15 15 14 14 14 13 13 13 13 13
8 9 9 9 11 13 15 16 17 16 16 15 15 15 15 15 14 14 13 13 13 13
7 7 8 8 9 9 10 11 13 16 15 15 15 15 15 14 14 14 14 14 13 13
6 6 7 7 8 8 9 9 9 9 12 12 14 15 14 14 14 14 14 14 14 14
5 7 7 8 8 7 8 8 8 8 8 8 9 11 12 13 14 14 14 14 14 14
5 5 5 6 8 9 8 7 8 7 8 9 8 8 10 11 12 13 13 14 14 14
4 4 5 5 6 5 7 8 7 7 8 9 8 9 10 11 11 11 11 11 13 13
3 3 3 4 4 5 6 5 7 8 7 8 9 9 9 9 11 10 10 10 11 11
2 2 2 2 2 3 4 5 6 6 7 8 8 9 10 10 10 10 9 8 9 10
1 0 1 0 1 1 1 3 3 6 7 8 8 9 9 9 9 9 9 10 9 7
0 0 0 -0 -0 -1 -0 1 2 4 6 6 7 9 9 8 7 8 7 8 9 9
Height
662 668 675 684 688 693 699 703 710 718 726 733 740 747 753 761 767 776 783 789 793 798
659 662 670 679 683 687 693 698 704 709 715 724 732 739 745 752 759 767 771 779 786 791
656 659 666 674 678 682 688 693 697 704 711 718 722 730 737 745 750 755 762 771 778 782
656 656 661 667 672 677 682 686 692 696 704 711 716 722 728 735 740 746 752 759 767 772
666 665 664 669 672 673 676 681 686 690 696 703 708 712 719 726 732 736 742 749 756 764
679 677 678 678 681 681 678 681 685 687 690 693 700 708 712 719 722 725 731 738 745 753
690 693 693 689 692 688 687 689 689 686 673 690 698 701 704 710 717 721 727 729 738 742
705 706 705 699 700 695 692 695 697 698 709 693 702 696 689 701 706 712 718 724 730 733
713 715 714 705 697 703 700 698 697 702 712 703 705 708 693 701 702 711 717 719 723 726
719 717 724 711 713 710 707 710 712 716 706 706 719 708 705 704 705 711 716 716 717 721
722 723 718 716 719 714 708 711 706 703 705 712 710 707 707 707 707 711 718 714 712 713
728 728 729 721 727 717 718 709 705 710 708 702 702 711 707 707 707 712 713 712 711 709
737 729 726 723 724 717 722 713 714 710 705 702 706 700 704 709 709 711 709 708 707 708
729 726 724 723 720 719 718 714 713 709 704 702 704 704 706 707 709 707 706 706 705 706
Wind_Speed
39 36 37 37 34 34 35 39 41 46 45 45 47 45 46 42 43 42 40 36 37 34
34 33 32 34 33 32 34 31 37 45 46 44 43 43 44 41 41 42 43 43 37 38
27 29 30 29 30 30 31 32 35 42 40 41 43 42 43 40 42 41 40 39 38 37
28 19 13 16 23 31 32 35 36 41 39 40 40 43 42 39 37 38 38 39 39 41
36 32 34 31 20 11 15 23 36 41 40 40 40 42 44 43 38 40 38 38 37 38
38 38 32 34 32 27 23 19 10 30 34 37 32 38 40 39 38 41 42 38 36 38
37 33 32 34 28 30 30 29 26 20 12 12 22 28 32 35 36 34 35 37 39 37
32 32 30 30 28 28 27 25 24 19 16 12 9 10 13 19 30 33 29 33 39 40
31 30 30 28 28 24 25 23 20 18 11 13 13 7 13 8 12 18 24 29 32 32
24 23 23 26 26 22 17 14 14 9 10 11 5 8 8 6 5 3 8 11 21 25
20 21 21 21 21 21 21 15 11 12 13 7 6 9 6 6 3 1 6 6 8 11
16 15 12 15 15 16 20 19 18 13 11 14 12 8 8 9 7 6 6 6 7 9
13 14 14 13 14 14 15 16 16 16 16 14 19 14 12 10 9 9 9 9 10 11
17 18 16 16 15 15 16 18 20 19 18 18 18 18 18 16 13 11 11 12 12 11
Wind_Direction
202 199 203 205 200 197 198 198 196 196 198 196 194 193 195 196 200 202 206 208 204 210
199 196 201 207 200 199 202 201 200 195 196 196 193 193 193 195 198 201 204 210 211 212
203 197 201 205 200 200 200 197 197 193 195 194 193 192 196 196 200 198 202 207 211 213
53 96 142 176 195 206 202 200 197 193 195 191 190 193 198 198 196 197 201 204 208 214
46 49 63 57 71 128 179 203 194 188 192 193 191 192 196 202 201 202 201 201 204 214
42 42 44 55 55 62 74 76 121 180 190 188 201 204 203 204 201 200 202 202 204 210
40 36 40 49 52 56 56 52 47 47 78 127 187 206 210 207 202 199 200 205 211 213
34 36 37 41 46 52 53 50 53 48 63 55 94 141 159 179 197 200 212 215 217 214
32 27 24 33 35 37 46 41 46 38 19 63 24 7 68 135 158 192 215 229 232 227
27 21 14 25 21 28 36 42 27 11 32 32 326 29 30 36 87 173 215 207 203 220
15 4 7 12 5 4 12 13 1 1 355 330 350 352 12 19 35 306 257 239 216 216
7 357 360 8 347 358 341 349 349 332 299 313 321 309 346 352 352 315 299 289 261 238
352 360 354 354 342 350 329 333 317 312 319 306 283 296 300 299 307 307 310 302 288 283
354 350 348 338 339 336 329 324 316 309 304 301 296 284 267 272 268 276 290 293 298 290